Location: Molveno
(46.1500°N, 10.9667°E)
Time: 07:38:17
(UTC+00:00)

Cosmos 2369 Rocket - Pass Details

Date: 05 July 2020
Orbit: 830 x 851 km, 71.0° (Epoch: 05 August)

Event Time Altitude Azimuth Distance (km) Brightness Sun altitude
Rises 21:54:14 0° 341° (NNW) 3,383 7.1 -18.4°
Reaches altitude 10° 21:57:33 10° 1° (N) 2,447 5.7 -18.6°
Maximum altitude 22:01:13 18° 42° (NE) 1,967 4.4 -18.8°
Drops below altitude 10° 22:04:53 10° 83° (E) 2,444 4.5 -19.1°
Enters shadow 22:06:55 - 97° (E) 2,986 4.8 -19.2°
